GW5356 Weather Reports


Display with metric or nautical units.
time (UTC)temp
F
wind
direction
speed
MPH
gust
MPH
rain 1hr
in
rain 24hr
in
rain mn
in
humidity
%
barometer
mb
20260503060113 43 0 0.0 0.0 0.00 0.00 0.00 67 1016.0
20260503054554 44 0 0.0 0.0 0.00 0.00 0.00 65 1015.9
20260503053053 44 0 0.0 1.0 0.00 0.00 0.00 62 1016.0
20260503051553 45 0 0.0 1.0 0.00 0.00 0.00 61 1016.0
20260503050054 46 0 0.0 0.0 0.00 0.00 0.00 59 1016.0
20260503044556 46 95 0.0 0.0 0.00 0.00 0.00 59 1015.9
20260503043054 47 0 0.0 0.0 0.00 0.00 0.00 58 1015.8
20260503041555 48 151 0.0 0.0 0.00 0.00 0.00 53 1015.5
20260503040055 48 204 0.0 0.0 0.00 0.00 0.00 54 1015.3
20260503034610 49 0 0.0 0.0 0.00 0.00 0.00 51 1015.3
20260503033059 49 211 0.0 1.0 0.00 0.00 0.00 50 1015.3
20260503031558 50 211 0.0 1.0 0.00 0.00 0.00 48 1015.2
20260503030057 51 0 0.0 1.0 0.00 0.00 0.00 48 1015.0
20260503024554 51 113 1.0 2.0 0.00 0.00 0.00 47 1014.8
20260503023100 52 0 0.0 1.0 0.00 0.00 0.00 46 1014.9
20260503021557 52 0 0.0 1.0 0.00 0.00 0.00 45 1014.7
20260503020055 53 222 0.0 4.0 0.00 0.00 0.00 43 1014.7
20260503014553 54 105 2.0 4.0 0.00 0.00 0.00 42 1014.4
20260503013059 54 227 2.0 6.0 0.00 0.00 0.00 42 1014.2
20260503011607 55 69 3.0 7.0 0.00 0.00 0.00 42 1013.9
20260503010119 55 98 3.0 6.0 0.00 0.00 0.00 42 1013.6
20260503004557 56 87 2.0 8.0 0.00 0.00 0.00 40 1013.3
20260503003118 57 139 2.0 6.0 0.00 0.00 0.00 40 1013.2
20260503001553 0 0.0 0.0 0.00 0.00 0.00 1013.0
20260502234555 0 68 3.0 5.0 0.00 0.00 0.00 1012.5
20260502233057 0 0.0 0.0 0.00 0.00 0.00 1012.2
20260502231556 0 0.0 0.0 0.00 0.00 0.00 1011.8
20260502230058 0 0.0 0.0 0.00 0.00 0.00 1011.9
20260502224601 0 0.0 0.0 0.00 0.00 0.00 1011.4
20260502223054 0 0.0 0.0 0.00 0.00 0.00 1011.3
20260502221553 0 0.0 0.0 0.00 0.00 0.00 1011.1
20260502220053 0 0.0 0.0 0.00 0.00 0.00 1010.9
20260502214615 0 0.0 0.0 0.00 0.00 0.00 1010.6
20260502213056 0 0.0 0.0 0.00 0.00 0.00 1010.5
20260502211602 62 1.0 5.0 0.00 0.00 0.00 40 1010.4
20260502210054 0 0.0 0.0 0.00 0.00 0.00 1010.4
20260502204550 0 0.0 0.0 0.00 0.00 0.00 1010.3
20260502203106 0 0.0 0.0 0.00 0.00 0.00 1010.4
20260502201606 0 0.0 0.0 0.00 0.00 0.00 1010.5
20260502200050 0 0.0 0.0 0.00 0.00 0.00 1010.5
20260502194558 0 0.0 0.0 0.00 0.00 0.00 1010.8
20260502193055 0 0.0 0.0 0.00 0.00 0.00 1011.3
20260502191553 0 0.0 0.0 0.00 0.00 0.00 1011.4
20260502190053 0 0.0 0.0 0.00 0.00 0.00 1011.5
20260502184556 0 0.0 0.0 0.00 0.00 0.00 1011.9
20260502183059 0 0.0 0.0 0.00 0.00 0.00 1011.9
20260502181556 0 0.0 0.0 0.00 0.00 0.00 1012.0
20260502180104 0 1.0 3.0 0.00 0.00 0.00 1012.2
20260502163110 56 129 2.0 3.0 0.00 0.00 0.00 1013.5
20260502161557 0 0.0 0.0 0.00 0.00 0.00 1013.9
20260502160105 0 0.0 0.0 0.00 0.00 0.00 1013.9
20260502151602 54 94 2.0 3.0 0.00 0.00 0.00 49 1013.9
20260502123051 53 157 0.0 2.0 0.00 0.00 0.00 64 1013.0
20260502121554 53 89 0.0 2.0 0.00 0.00 0.00 64 1013.1
20260502120108 53 0 0.0 1.0 0.00 0.00 0.00 65 1012.7
20260502114629 53 0 0.0 2.0 0.00 0.00 0.00 65 1012.9
20260502113057 53 0 0.0 1.0 0.00 0.00 0.00 64 1012.8
20260502111551 53 141 0.0 1.0 0.00 0.00 0.00 64 1012.7
20260502110055 53 98 0.0 2.0 0.00 0.00 0.00 64 1012.5
20260502104556 54 0 0.0 2.0 0.00 0.00 0.00 63 1012.4
20260502103054 54 0 0.0 0.0 0.00 0.00 0.00 63 1012.5
20260502101614 54 28 0.0 4.0 0.00 0.00 0.00 64 1012.3
20260502100108 54 61 0.0 4.0 0.00 0.00 0.00 64 1012.5
20260502070108 55 137 0.0 3.0 0.00 0.00 0.00 71 1011.4
20260502064615 55 146 0.0 2.0 0.00 0.00 0.00 74 1011.7
20260502063119 55 0 1.0 2.0 0.00 0.00 0.00 76 1011.6